Regional Weather Roundup
Issued by NWS

Home | Current Version | Previous Version | Graphics & Text | Print | Product List | Glossary Off
Versions: 1 2 3 4 5 6 7 8 9 10 11 12 13 14 15 16 17 18 19 20 21 22 23 24 25 26 27 28 29 30 31 32 33 34 35 36 37 38 39 40 41 42 43 44 45 46 47 48 49 50

000
ASUS43 KDMX 260507
RWRIA

WEATHER ROUNDUP FOR IOWA
NATIONAL WEATHER SERVICE DES MOINES IA
1200 AM CDT SUN APR 26 2015

NOTE: "FAIR" INDICATES FEW OR NO CLOUDS BELOW 12,000 FEET WITH NO
SIGNIFICANT WEATHER AND/OR OBSTRUCTIONS TO VISIBILITY.

* - THESE STATIONS ARE NOT NWS STATIONS...THUS NOT UNDER NWS
QUALITY CONTROL.  THEY ALSO DO NOT REPORT WEATHER SUCH
AS PRECIPITATION OR FOG.

IAZ001>003-012>014-020>022-031>034-043>046-260600-
   NORTHWEST IOWA

CITY           SKY/WX    TMP DP  RH WIND       PRES   REMARKS
CARROLL *      CLOUDY    46  41  81 NE8       29.91S
CHEROKEE *     CLOUDY    46  39  76 E5        29.93R
DENISON *      CLOUDY    48  45  87 NE9       29.90R
LE MARS *      CLOUDY    52  41  66 E6        29.95R
ORANGE CITY *  CLOUDY    48  39  71 E7        29.94R
SHELDON *      CLEAR     41  37  87 NE6       29.94R
SIOUX CITY     CLOUDY    52  40  63 SE7       29.93R
SPENCER        PTCLDY    42  36  79 NE7       29.94R
STORM LAKE *   CLEAR     45  39  81 E9        29.93S
$$

IAZ055>058-069>071-079>083-090>094-260600-
   SOUTHWEST IOWA

CITY           SKY/WX    TMP DP  RH WIND       PRES   REMARKS
ATLANTIC *     CLOUDY    46  43  87 NE7       29.90R
AUDUBON *      MOCLDY    46  41  81 NE10      29.91R
CLARINDA *     CLOUDY    50  46  87 NE9       29.89R
COUNCIL BLFS * CLOUDY    48  46  93 E10       29.90R
CRESTON *      CLOUDY    46  45  93 NE14      29.88R
HARLAN  *      CLOUDY    46  46 100 NE7       29.93R
LAMONI         CLOUDY    48  42  80 NE15      29.86R
RED OAK *      CLOUDY    50  45  81 NE10      29.89R
SHENANDOAH *   CLOUDY    50  46  87 NE14G20   29.88S
$$

IAZ047>049-059>061-072>074-084-260600-
   CENTRAL IOWA

CITY           SKY/WX    TMP DP  RH WIND       PRES   REMARKS
AMES           CLOUDY    47  39  74 NE5       29.92R
ANKENY *       CLOUDY    46  41  81 NE8G14    29.90S
CHARITON *     CLOUDY    46  41  81 NE12      29.88R
DES MOINES     MOCLDY    48  38  68 E9        29.90R
GRINNELL*      CLOUDY    46  41  81 NE9       29.90S
KNOXVILLE *    CLOUDY    46  37  71 NE9       29.88R
MARSHALLTOWN   CLOUDY    46  38  73 E7        29.91R
PELLA *        CLOUDY    46  42  88 NE3       29.91R
PERRY *        MOCLDY    46  41  81 NE5       29.91R
$$

IAZ004>006-015-016-023>025-035-036-260600-
   NORTH CENTRAL IOWA

CITY           SKY/WX    TMP DP  RH WIND       PRES   REMARKS
ALGONA *       CLEAR     43  41  93 N5        29.95R
CLARION *      MOCLDY    39  39 100 NE8       29.94R WCI  34
ESTHERVILLE    CLEAR     36  33  89 N5        29.94R WCI  32
FORT DODGE *   PTCLDY    43  37  81 NE7       29.94R
MASON CITY     CLEAR     38  35  89 NW3       29.95R
FOREST CITY *  CLEAR     36  36 100 CALM      29.94R FOG
IOWA FALLS *   CLOUDY    46  39  76 NE6       29.93R
$$

IAZ007>011-017>019-026>030-037>042-050>054-066-260600-
   NORTHEAST IOWA

CITY           SKY/WX    TMP DP  RH WIND       PRES   REMARKS
CEDAR RAPIDS   CLOUDY    46  39  76 NE9       29.90R
CHARLES CITY * CLEAR     41  37  87 N3        29.94R
CLINTON *      CLEAR     39  34  81 N7        29.93R WCI  34
DECORAH *      CLEAR     41  30  65 E5        29.93R
DUBUQUE        CLEAR     41  33  73 NE6       29.91R
MONTICELLO *   CLOUDY    45  39  81 NE3       29.92R
OELWEIN *      PTCLDY    41  34  75 N5        29.94R
WATERLOO       CLOUDY    41  36  82 CALM      29.93R
$$

IAZ064-065-067-068-078-260600-
   EAST CENTRAL IOWA

CITY           SKY/WX    TMP DP  RH WIND       PRES   REMARKS
DAVENPORT      CLOUDY    44  35  70 NE8       29.90R
IOWA CITY      CLOUDY    46  37  71 NE8       29.92R
MT. PLEASANT * CLOUDY    45  39  81 NE13      29.87S
MUSCATINE *    CLOUDY    46  39  76 NE10      29.91R
QUAD CITIES    CLOUDY    45  35  68 NE9       29.89R
$$

IAZ062-063-075>077-085>089-095>099-260600-
   SOUTHEAST IOWA

CITY           SKY/WX    TMP DP  RH WIND       PRES   REMARKS
BURLINGTON     CLOUDY    45  40  82 NE15      29.86R
FAIRFIELD *    CLOUDY    45  39  81 NE12      29.88R
FORT MADISON * CLOUDY    46  41  81 NE12      29.87R
KEOKUK *       CLOUDY    48  43  81 NE10G17   29.84R
OSKALOOSA *    CLOUDY    45  39  81 NE10      29.89R
CENTERVILLE *  CLOUDY    46  43  87 NE10      29.87R
OTTUMWA        CLOUDY    46  39  76 NE9       29.88R
WASHINGTON *   CLOUDY    45  45 100 NE12      29.89R
$$

ABBREVIATIONS USED IN REMARKS
   TC - TEMPERATURES IN CELSIUS
  WCI - WIND CHILL INDEX
   HX - HEAT INDEX
  VSB - VISIBILITY
$$




USA.gov is the U.S. government's official web portal to all federal, state and local government web resources and services.